Regional Weather Roundup
Issued by NWS

Home | Current Version | Previous Version | Graphics & Text | Print | Product List | Glossary On
Versions: 1 2 3 4 5 6 7 8 9 10 11 12 13 14 15 16 17 18 19 20 21 22 23 24 25 26 27 28 29 30 31 32 33 34 35 36 37 38 39 40 41 42 43 44 45 46 47 48 49 50
000
ASUS45 KCYS 241510
RWRWY

WYOMING REGIONAL WEATHER ROUNDUP
NATIONAL WEATHER SERVICE CHEYENNE WY
800 AM MST SAT JAN 24 2015

NOTE:  "FAIR" INDICATES FEW OR NO CLOUDS BELOW 12,000 FEET
WITH NO SIGNIFICANT WEATHER AND/OR OBSTRUCTIONS TO VISIBILITY.

WYZ001-241600-
YELLOWSTONE NATIONAL PARK

CITY           SKY/WX    TMP DP  RH WIND       PRES   REMARKS
LK YELLOWSTONE   N/A     15  11  83 NW3       30.34F
W YELLOWSTONE  NOT AVBL

$$
WYZ002>013-054>058-071-098>099-241600-
NORTHERN WYOMING

CITY           SKY/WX    TMP DP  RH WIND       PRES   REMARKS
JACKSON        CLOUDY    10   9  92 CALM      30.39F
CODY           MOCLDY    45  23  42 W17G33    30.08R
GREYBULL       CLOUDY    19  15  84 N5        30.13F WCI  12
WORLAND        MOCLDY    19  15  84 SE7       30.13F WCI  10
SHERIDAN       CLOUDY    46  32  58 VRB5      29.93F
BUFFALO        MOCLDY    48  33  56 NW10      29.93F
GILLETTE       LGT RAIN  38  29  70 W14       29.94S WCI  30
HULETT           N/A    N/A N/A N/A MISG        N/A
NEWCASTLE      PTSUNNY   30  23  74 N7        29.97R WCI  23

$$
WYZ014>020-022>026-101>103-241600-
CENTRAL WYOMING

CITY           SKY/WX    TMP DP  RH WIND       PRES   REMARKS
BIG PINEY      FAIR      10   6  84 SE5       30.32R WCI   2
PINEDALE       FAIR      12   9  85 E7        30.31R WCI   2
DUBOIS         CLOUDY    34  23  64 NW9G23    30.23F WCI  26
LANDER         FAIR      28  16  60 NW5       30.15R WCI  23
RIVERTON       FAIR      19  15  84 NE3       30.14F
CASPER         CLOUDY    33  18  53 SW28G40   30.10R WCI  20
DOUGLAS        CLOUDY    41  16  36 W18G29    30.01R

$$
WYZ021-027>030-104>119-241600-
SOUTHERN WYOMING

CITY           SKY/WX    TMP DP  RH WIND       PRES   REMARKS
EVANSTON       FAIR      18  14  84 SW10      30.40R WCI   6
FORT BRIDGER   FAIR      28  19  70 W16       30.39F WCI  16
ROCK SPRINGS   FAIR      25  16  68 W24       30.29F WCI   9
DIXON          FAIR      13   8  81 CALM      30.40R
RAWLINS        MOCLDY    27  16  63 W8        30.25R WCI  19
SARATOGA       FAIR      23  14  68 S6        30.27S WCI  16
LARAMIE        FAIR      30  11  45 SW18      30.13F WCI  18
CHEYENNE       FAIR      39  10  30 NW14G25   30.04F WCI  31
TORRINGTON     FAIR      42  19  39 W16G26    30.01R
PINE BLUFFS    FAIR      36  18  48 W16G22    30.01F WCI  26

$$



USA.gov is the U.S. government's official web portal to all federal, state and local government web resources and services.